EW8788 Weather Reports


Display with metric or nautical units.
time (UTC)temp
F
wind
direction
speed
MPH
gust
MPH
rain 1hr
in
rain 24hr
in
rain mn
in
humidity
%
barometer
mb
20260503225841 60 0 3.0 6.0 0.00 0.00 0.00 30 1014.5
20260503225342 61 343 2.0 5.0 0.00 0.00 0.00 32 1014.5
20260503224839 61 293 3.0 9.0 0.00 0.00 0.00 30 1014.5
20260503224338 61 351 3.0 9.0 0.00 0.00 0.00 30 1014.5
20260503223840 61 292 2.0 5.0 0.00 0.00 0.00 31 1014.4
20260503223338 61 221 2.0 10.0 0.00 0.00 0.00 30 1014.3
20260503222838 61 255 4.0 10.0 0.00 0.00 0.00 29 1014.3
20260503222338 61 261 2.0 6.0 0.00 0.00 0.00 29 1014.4
20260503221836 61 289 2.0 7.0 0.00 0.00 0.00 31 1014.6
20260503221332 62 292 4.0 7.0 0.00 0.00 0.00 29 1014.5
20260503220832 62 316 4.0 10.0 0.00 0.00 0.00 30 1014.5
20260503220331 62 283 5.0 10.0 0.00 0.00 0.00 31 1014.6
20260503215331 62 259 1.0 11.0 0.00 0.00 0.00 31 1014.6
20260503214320 62 272 6.0 12.0 0.00 0.00 0.00 29 1014.7
20260503213819 62 4 6.0 12.0 0.00 0.00 0.00 28 1014.5
20260503213318 62 344 5.0 12.0 0.00 0.00 0.00 30 1014.6
20260503212320 63 296 7.0 13.0 0.00 0.00 0.00 30 1014.6
20260503211819 63 320 4.0 9.0 0.00 0.00 0.00 31 1014.6
20260503211319 63 279 3.0 10.0 0.00 0.00 0.00 31 1014.6
20260503210818 63 309 4.0 10.0 0.00 0.00 0.00 29 1014.6
20260503210319 62 278 3.0 11.0 0.00 0.00 0.00 29 1014.6
20260503205819 62 0 6.0 11.0 0.00 0.00 0.00 28 1014.8
20260503205318 63 0 5.0 11.0 0.00 0.00 0.00 31 1014.8
20260503204820 63 279 5.0 15.0 0.00 0.00 0.00 31 1014.7
20260503204318 62 264 6.0 15.0 0.00 0.00 0.00 28 1014.7
20260503203819 62 0 4.0 11.0 0.00 0.00 0.00 30 1014.7
20260503202818 63 269 4.0 10.0 0.00 0.00 0.00 30 1014.8
20260503201818 62 0 6.0 14.0 0.00 0.00 0.00 30 1014.9
20260503201319 62 240 4.0 12.0 0.00 0.00 0.00 28 1015.1
20260503200818 63 286 4.0 9.0 0.00 0.00 0.00 29 1015.1
20260503200320 62 305 2.0 11.0 0.00 0.00 0.00 29 1015.0
20260503195819 61 0 2.0 12.0 0.00 0.00 0.00 34 1015.0
20260503195318 63 0 7.0 12.0 0.00 0.00 0.00 34 1015.1
20260503194819 62 0 6.0 10.0 0.00 0.00 0.00 33 1015.2
20260503193820 62 306 4.0 14.0 0.00 0.00 0.00 30 1015.4
20260503193319 63 0 6.0 14.0 0.00 0.00 0.00 28 1015.6
20260503192818 62 292 6.0 9.0 0.00 0.00 0.00 28 1015.6
20260503192318 60 257 2.0 13.0 0.00 0.00 0.00 28 1015.6
20260503191819 62 0 5.0 13.0 0.00 0.00 0.00 30 1015.8
20260503191318 62 258 6.0 12.0 0.00 0.00 0.00 32 1015.9
20260503190819 62 0 5.0 12.0 0.00 0.00 0.00 29 1015.8
20260503190320 61 0 3.0 11.0 0.00 0.00 0.00 29 1015.8
20260503185818 61 25 4.0 14.0 0.00 0.00 0.00 30 1016.0
20260503185320 62 0 5.0 14.0 0.00 0.00 0.00 30 1016.3
20260503184820 62 0 6.0 12.0 0.00 0.00 0.00 31 1016.2
20260503184318 62 327 5.0 12.0 0.00 0.00 0.00 30 1016.2
20260503183818 61 0 5.0 11.0 0.00 0.00 0.00 32 1016.1
20260503183318 61 0 6.0 14.0 0.00 0.00 0.00 33 1016.4
20260503182820 61 347 7.0 14.0 0.00 0.00 0.00 34 1016.3
20260503182319 60 283 6.0 11.0 0.00 0.00 0.00 34 1016.3
20260503181820 60 245 3.0 7.0 0.00 0.00 0.00 33 1016.3
20260503180820 59 285 6.0 11.0 0.00 0.00 0.00 33 1016.4
20260503180319 60 275 5.0 11.0 0.00 0.00 0.00 34 1016.4
20260503175818 59 292 2.0 11.0 0.00 0.00 0.00 39 1016.4
20260503175318 60 329 6.0 12.0 0.00 0.00 0.00 33 1016.6
20260503174819 59 358 4.0 12.0 0.00 0.00 0.00 31 1016.6
20260503174319 60 296 6.0 10.0 0.00 0.00 0.00 33 1016.6
20260503173319 57 292 2.0 11.0 0.00 0.00 0.00 34 1016.6
20260503172816 60 276 4.0 10.0 0.00 0.00 0.00 33 1016.8
20260503172310 58 0 4.0 13.0 0.00 0.00 0.00 36 1017.0
20260503171804 60 261 5.0 13.0 0.00 0.00 0.00 36 1017.0
20260503171302 58 231 4.0 12.0 0.00 0.00 0.00 34 1017.0
20260503150726 55 309 5.0 12.0 0.00 0.00 0.00 40 1018.2
20260503150223 54 290 5.0 13.0 0.00 0.00 0.00 41 1018.0
20260503140217 51 338 6.0 14.0 0.00 0.00 0.00 44 1018.3
20260503130716 48 0 6.0 17.0 0.00 0.00 0.00 48 1018.2
20260503130214 48 0 7.0 17.0 0.00 0.00 0.00 48 1018.2
20260503110656 41 0 0.0 4.0 0.00 0.00 0.00 61 1017.4
20260503100133 39 313 1.0 2.0 0.00 0.00 0.00 69 1016.4
20260503090118 40 305 1.0 4.0 0.00 0.00 0.00 66 1016.1
20260503081617 42 306 3.0 5.0 0.00 0.00 0.00 64 1016.1
20260503081118 42 298 2.0 4.0 0.00 0.00 0.00 66 1016.1
20260503080618 41 295 2.0 3.0 0.00 0.00 0.00 66 1016.1
20260503080117 41 298 1.0 2.0 0.00 0.00 0.00 66 1016.1
20260503072617 42 306 2.0 5.0 0.00 0.00 0.00 63 1015.8
20260503072118 42 310 2.0 5.0 0.00 0.00 0.00 64 1015.7
20260503071618 42 326 1.0 5.0 0.00 0.00 0.00 63 1015.7
20260503071117 42 302 2.0 5.0 0.00 0.00 0.00 63 1015.6
20260503070617 42 303 1.0 4.0 0.00 0.00 0.00 63 1015.6
20260503070117 42 326 2.0 4.0 0.00 0.00 0.00 63 1015.6
20260503060117 42 310 2.0 3.0 0.00 0.00 0.00 65 1015.3
20260503055117 42 300 1.0 2.0 0.00 0.00 0.00 65 1015.3
20260503054617 43 305 0.0 2.0 0.00 0.00 0.00 63 1015.3
20260503054117 43 305 1.0 2.0 0.00 0.00 0.00 63 1015.3
20260503053117 44 310 1.0 5.0 0.00 0.00 0.00 61 1015.4
20260503052618 44 295 2.0 7.0 0.00 0.00 0.00 61 1015.4
20260503052117 44 306 2.0 7.0 0.00 0.00 0.00 60 1015.5
20260503051618 44 0 3.0 6.0 0.00 0.00 0.00 61 1015.5
20260503051118 44 306 3.0 5.0 0.00 0.00 0.00 60 1015.6
20260503050617 44 306 3.0 6.0 0.00 0.00 0.00 60 1015.6
20260503050116 44 285 2.0 6.0 0.00 0.00 0.00 60 1015.5
20260503045615 44 309 2.0 9.0 0.00 0.00 0.00 60 1015.6
20260503045111 44 269 3.0 9.0 0.00 0.00 0.00 60 1015.5
20260503044612 44 319 4.0 11.0 0.00 0.00 0.00 59 1015.5
20260503044110 44 331 5.0 11.0 0.00 0.00 0.00 59 1015.6
20260503043114 44 320 7.0 13.0 0.00 0.00 0.00 59 1015.5
20260503042111 44 344 4.0 6.0 0.00 0.00 0.00 60 1015.4
20260503041610 44 324 3.0 9.0 0.00 0.00 0.00 60 1015.4
20260503041108 44 348 3.0 7.0 0.00 0.00 0.00 60 1015.5
20260503040605 44 319 3.0 6.0 0.00 0.00 0.00 60 1015.5
20260503040103 44 0 4.0 6.0 0.00 0.00 0.00 60 1015.5
20260503035604 44 329 3.0 5.0 0.00 0.00 0.00 60 1015.5
20260503035102 44 343 1.0 4.0 0.00 0.00 0.00 59 1015.5
20260503034604 44 350 1.0 9.0 0.00 0.00 0.00 59 1015.4
20260503034101 45 300 2.0 9.0 0.00 0.00 0.00 58 1015.5
20260503033601 45 347 2.0 10.0 0.00 0.00 0.00 58 1015.4
20260503033102 45 336 4.0 10.0 0.00 0.00 0.00 58 1015.4
20260503032602 45 0 3.0 7.0 0.00 0.00 0.00 57 1015.4
20260503032101 45 0 3.0 7.0 0.00 0.00 0.00 57 1015.4
20260503031602 45 0 1.0 2.0 0.00 0.00 0.00 57 1015.3
20260503031102 45 327 1.0 2.0 0.00 0.00 0.00 56 1015.3
20260503030602 45 1 0.0 3.0 0.00 0.00 0.00 57 1015.3
20260503025102 46 11 1.0 5.0 0.00 0.00 0.00 56 1015.4
20260503024559 46 24 2.0 4.0 0.00 0.00 0.00 55 1015.4
20260503024100 46 1 2.0 5.0 0.00 0.00 0.00 54 1015.4
20260503023555 46 0 4.0 7.0 0.00 0.00 0.00 54 1015.4
20260503023044 47 0 4.0 7.0 0.00 0.00 0.00 53 1015.4
20260503022545 47 344 3.0 7.0 0.00 0.00 0.00 54 1015.5
20260503021538 47 336 3.0 9.0 0.00 0.00 0.00 53 1015.4
20260503020549 48 1 3.0 9.0 0.00 0.00 0.00 52 1015.4
20260503020036 48 1 4.0 9.0 0.00 0.00 0.00 52 1015.3
20260503015530 48 337 4.0 9.0 0.00 0.00 0.00 51 1015.3
20260503015029 49 305 3.0 7.0 0.00 0.00 0.00 51 1015.4
20260503014529 49 355 2.0 5.0 0.00 0.00 0.00 51 1015.2
20260503014029 49 355 1.0 5.0 0.00 0.00 0.00 51 1015.2
20260503013524 49 331 2.0 4.0 0.00 0.00 0.00 51 1015.1
20260503012017 49 8 3.0 5.0 0.00 0.00 0.00 51 1014.9
20260503011517 49 358 0.0 5.0 0.00 0.00 0.00 50 1014.7
20260503011016 50 336 2.0 7.0 0.00 0.00 0.00 49 1014.6
20260503010517 50 47 3.0 7.0 0.00 0.00 0.00 49 1014.4
20260503010014 50 78 2.0 4.0 0.00 0.00 0.00 50 1014.4
20260503005515 50 0 3.0 5.0 0.00 0.00 0.00 49 1014.4
20260503004513 51 347 4.0 7.0 0.00 0.00 0.00 48 1014.3
20260503004011 51 7 3.0 7.0 0.00 0.00 0.00 48 1014.1
20260503003510 51 7 4.0 6.0 0.00 0.00 0.00 49 1013.9
20260503003010 51 20 4.0 6.0 0.00 0.00 0.00 48 1013.9
20260503002511 51 1 3.0 7.0 0.00 0.00 0.00 48 1013.7
20260503002011 51 3 3.0 7.0 0.00 0.00 0.00 47 1013.7
20260503001510 51 0 4.0 7.0 0.00 0.00 0.00 47 1013.7
20260503001009 51 63 3.0 7.0 0.00 0.00 0.00 46 1013.5
20260503000005 52 348 3.0 7.0 0.00 0.00 0.00 45 1013.4
20260502235505 52 355 3.0 7.0 0.00 0.00 0.00 45 1013.5
20260502234503 52 0 5.0 9.0 0.00 0.00 0.00 45 1013.2
20260502233957 52 345 5.0 7.0 0.00 0.00 0.00 44 1013.1
20260502233455 53 345 4.0 6.0 0.00 0.00 0.00 44 1013.1
20260502232949 53 42 2.0 7.0 0.00 0.00 0.00 44 1013.0
20260502232441 53 41 3.0 10.0 0.00 0.00 0.00 41 1013.1
20260502231932 53 340 4.0 10.0 0.00 0.00 0.00 42 1013.0
20260502231431 54 54 4.0 10.0 0.00 0.00 0.00 41 1012.9
20260502230929 54 0 4.0 10.0 0.00 0.00 0.00 41 1013.0